Tracking 29892 objects as of 21-Nov-2024
HD Live streaming from Space Station
objects crossing your sky now

STARLINK-3086

Track STARLINK-3086 now!
10-day predictions
STARLINK-3086 is classified as:


NORAD ID: 49178
Int'l Code: 2021-082BA
Perigee: 577.1 km
Apogee: 581.3 km
Inclination: 70.0 °
Period: 96.1 minutes
Semi major axis: 6950 km
RCS: Unknown
Launch date: September 14, 2021
Source: United States (US)
Launch site: AIR FORCE WESTERN TEST RANGE (AFWTR)
Your satellite tracking list
Your tracking list is empty




NASA's NSSDC Master Catalog

Two Line Element Set (TLE):
1 49178U 21082BA  24325.22165152 -.00001777  00000-0 -14119-3 0  9995
2 49178  70.0001  50.7457 0003089 273.2277  86.8529 14.98328991176069
Source of the keplerian elements: AFSPC